Change the Weather History Date:

Tuesday, November 5, 2013

  Actual Average Record
Temperature  
Mean Temperature 40 °F -  
Max Temperature 53 °F 37 °F 59 °F (1996)
Min Temperature 28 °F 27 °F 28 °F (2013)
Degree Days  
Heating Degree Days 24    
Moisture  
Dew Point 36 °F    
Average Humidity 82    
Maximum Humidity 100    
Minimum Humidity 54    
Precipitation  
Precipitation 0.00 in - - ()
Sea Level Pressure  
Sea Level Pressure 30.10 in    
Wind  
Wind Speed 2 mph ()    
Max Wind Speed 7 mph    
Max Gust Speed -    
Visibility 4.2 miles    
Events Fog    
Averages and records for this station are not official NWS values.
T = Trace of Precipitation, MM = Missing Value Source: Averaged Metar Reports

Daily Weather History Graph

Daily Weather History Graph

Search for Another Location

Airport or City:

Trip Planner

Search our weather history database for the weather conditions in past years. The results will help you decide how hot, cold, wet, or windy it might be!

Date:

Astronomy

Nov. 05, 2013 Rise Set
Actual Time 6:10 AM JST 4:16 PM JST
Civil Twilight 5:40 AM JST 4:46 PM JST
Nautical Twilight 5:06 AM JST 5:20 PM JST
Astronomical Twilight 4:32 AM JST 5:53 PM JST
Moon 7:46 AM JST (11/5) 5:37 PM JST (11/5)
Length of Visible Light 11h 05m
Length of Day
10h 05m
Waxing Crescent, 3% of the Moon is Illuminated
Nov 5
Waxing Crescent
Nov 10
First Quarter
Nov 18
Full
Nov 26
Last Quarter
Dec 3
New

Hourly Weather History & Observations

Time (JST) Temp. Windchill Dew Point Humidity Pressure Visibility Wind Dir Wind Speed Gust Speed Precip Events Conditions
7:00 AM 28.4 °F - 28.4 °F 100% 30.09 in 0.2 mi Calm Calm - N/A Fog Light Freezing Fog
7:19 AM 30.2 °F - 30.2 °F 100% 30.09 in 1.0 mi Calm Calm - N/A Fog Patches of Fog
7:38 AM 30.2 °F - 30.2 °F 100% 30.12 in 0.6 mi Variable 1.2 mph - N/A Fog Light Freezing Fog
8:00 AM 32.0 °F - 32.0 °F 100% 30.12 in 0.4 mi Variable 1.2 mph - N/A Fog Light Freezing Fog
8:14 AM 32.0 °F - 32.0 °F 100% 30.12 in 0.6 mi Variable 1.2 mph - N/A Fog Fog
8:35 AM 33.8 °F - 33.8 °F 100% 30.12 in 1.5 mi Variable 1.2 mph - N/A Fog Patches of Fog
8:44 AM 35.6 °F - 35.6 °F 100% 30.12 in 3.1 mi Variable 1.2 mph - N/A Fog Fog
9:00 AM 37.4 °F - 37.4 °F 100% 30.12 in 3.7 mi Variable 1.2 mph - N/A Fog Fog
10:00 AM 42.8 °F - 39.2 °F 87% 30.12 in 6.2 mi Variable 1.2 mph - N/A   Partly Cloudy
11:00 AM 48.2 °F - 44.6 °F 87% 30.09 in 6.2 mi Variable 1.2 mph - N/A   Scattered Clouds
12:00 PM 50.0 °F - 42.8 °F 76% 30.09 in 6.2 mi Variable 2.3 mph - N/A   Mostly Cloudy
1:00 PM 51.8 °F - 37.4 °F 58% 30.06 in 6.2 mi Variable 2.3 mph - N/A   Mostly Cloudy
2:00 PM 53.6 °F - 37.4 °F 54% 30.06 in 6.2 mi Variable 4.6 mph - N/A   Mostly Cloudy
3:00 PM 51.8 °F - 39.2 °F 62% 30.09 in 6.2 mi WNW 5.8 mph - N/A   Mostly Cloudy
4:00 PM 50.0 °F - 37.4 °F 62% 30.09 in 6.2 mi SW 6.9 mph - N/A   Mostly Cloudy
5:00 PM 48.2 °F - 35.6 °F 62% 30.12 in 6.2 mi SW 3.5 mph - N/A   Mostly Cloudy
6:00 PM 46.4 °F 43.5 °F 37.4 °F 71% 30.12 in 6.2 mi SSE 5.8 mph - N/A   Mostly Cloudy
7:00 PM 46.4 °F 43.5 °F 37.4 °F 71% 30.12 in 6.2 mi South 5.8 mph - N/A   Mostly Cloudy
8:00 PM 46.4 °F 43.5 °F 37.4 °F 71% 30.12 in 6.2 mi SSE 5.8 mph - N/A   Mostly Cloudy